This is the latest recevied weather packets stored in our database for station/object IT9CYW-10. If no packets are shown the sender has not sent any weather packets the latest 1 day(s).
| Time | Temp. | Humidity | Pressure | Rain* | Wind** | Luminosity | Snow |
|---|---|---|---|---|---|---|---|
| 1778043502 | 16.11° C | 71% | 995.2 hPa | - | - | 20 W/m² | - |
| 1778042602 | 15.56° C | 73% | 995.2 hPa | - | - | 17 W/m² | - |
| 1778041702 | 16.11° C | 72% | 995 hPa | - | - | 10 W/m² | - |
| 1778040802 | 15.56° C | 73% | 995 hPa | - | - | 3 W/m² | - |
| 1778039001 | 15° C | 76% | 994.7 hPa | - | - | 0 W/m² | - |
| 1778038101 | 15.56° C | 74% | 994.7 hPa | - | - | 0 W/m² | - |
| 1778037201 | 15° C | 73% | 994.7 hPa | - | - | 0 W/m² | - |
| 1778036301 | 15.56° C | 75% | 994.5 hPa | - | - | 0 W/m² | - |
| 1778035401 | 15.56° C | 71% | 994.7 hPa | - | - | 0 W/m² | - |
| 1778033600 | 15.56° C | 75% | 994.4 hPa | - | - | 0 W/m² | - |
| 1778032700 | 15.56° C | 79% | 994.4 hPa | - | - | 0 W/m² | - |
| 1778031800 | 15.56° C | 78% | 994.2 hPa | - | - | 0 W/m² | - |
| 1778030900 | 15.56° C | 79% | 994.2 hPa | - | - | 0 W/m² | - |
| 1778030000 | 15.56° C | 82% | 994.2 hPa | - | - | 0 W/m² | - |
| 1778029099 | 15.56° C | 81% | 994 hPa | - | - | 0 W/m² | - |
| 1778027299 | 15.56° C | 80% | 994.2 hPa | - | - | 0 W/m² | - |
| 1778024599 | 15.56° C | 84% | 995.2 hPa | - | - | 0 W/m² | - |
| 1778021001 | 15.56° C | 87% | 995.5 hPa | - | - | 0 W/m² | - |
| 1778020101 | 15.56° C | 88% | 995.5 hPa | - | - | 0 W/m² | - |
| 1778016500 | 16.11° C | 88% | 995.9 hPa | - | - | 0 W/m² | - |
| 1778010199 | 17.22° C | 87% | 995.7 hPa | - | - | 0 W/m² | - |
| 1778005698 | 17.78° C | 85% | 996 hPa | - | - | 0 W/m² | - |
| 1778004798 | 18.33° C | 85% | 995.7 hPa | - | - | 0 W/m² | - |
| 1778003898 | 18.33° C | 84% | 995.9 hPa | - | - | 1 W/m² | - |
* Rain since midnight (hover to see other rain measurements)
** Current wind speed in m/s (hover to see current wind gust speed)